Regional Weather Roundup
Issued by NWS Green Bay, WI

Home | Current Version | Previous Version | Graphics & Text | Print | Product List | Glossary Off
Versions: 1 2 3 4 5 6 7 8 9 10 11 12 13 14 15 16 17 18 19 20 21 22 23 24 25 26 27 28 29 30 31 32 33 34 35 36 37 38 39 40 41 42 43 44 45 46 47 48 49 50

000
ASUS43 KGRB 042000
RWRGRB

NORTH-CENTRAL AND NORTHEAST WISCONSIN REGIONAL WEATHER ROUNDUP
NATIONAL WEATHER SERVICE GREEN BAY WI
300 PM CDT SAT JUL 04 2015

WIZ005-009-010>012-018-019-042100-
NORTH CENTRAL WISCONSIN

CITY           SKY/WX    TMP DP  RH WIND       PRES   REMARKS
IRONWOOD       PTSUNNY   79  57  47 E5        29.94S
MANITOWISH WTR NOT AVBL
ARBOR VITAE    NOT AVBL
EAGLE RIVER    NOT AVBL
LAND O LAKES   NOT AVBL
RHINELANDER    PTSUNNY   82  49  31 VRB6      30.00R
PHILLIPS       NOT AVBL
ANTIGO         NOT AVBL
TOMAHAWK       NOT AVBL
MERRILL        NOT AVBL
$$

WIZ013-073-042100-
NORTHEAST WISCONSIN

CITY           SKY/WX    TMP DP  RH WIND       PRES   REMARKS
IRON MOUNTAIN  MOSUNNY   80  57  45 VRB6      29.97S
MARINETTE      MOSUNNY   73  59  60 E9        29.98S
$$

WIZ017-030-035>037-045-042100-
CENTRAL WISCONSIN

CITY           SKY/WX    TMP DP  RH WIND       PRES   REMARKS
MEDFORD        NOT AVBL
WAUSAU         SUNNY     83  57  41 SW8       29.95F
MOSINEE        MOSUNNY   81  59  47 SW5       29.99S
MARSHFIELD     MOSUNNY   81  60  48 CALM      29.97S HAZE
WISC RAPIDS    SUNNY     82  60  47 SW6       29.98S
STEVENS POINT  NOT AVBL
WAUPACA        NOT AVBL
SHAWANO        NOT AVBL
CLINTONVILLE   NOT AVBL
$$

WIZ038-039-048-051-042100-
FOX VALLEY

CITY           SKY/WX    TMP DP  RH WIND       PRES   REMARKS
NWS GREEN BAY  MOSUNNY   80  64  58 CALM      29.96F
APPLETON       PTSUNNY   79  61  53 SW5       29.98S
OSHKOSH        MOSUNNY   81  61  50 VRB3      29.97S
FOND DU LAC    MOSUNNY   81  62  52 SW7       29.98S
$$

WIZ022-050-052-042100-
EAST CENTRAL WISCONSIN

CITY           SKY/WX    TMP DP  RH WIND       PRES   REMARKS
STURGEON BAY   MOSUNNY   72  61  68 E8        30.02R
MANITOWOC      NOT AVBL
SHEBOYGAN      PTSUNNY   80  64  58 SE7       29.97F
$$

LMZ563-521-522-541>543-042100-
LAKESHORE

STATION/POSITION TIME  TEMP    WIND        PRES    VSBY  WAVE
                       AIR SEA DIR/SP/G                  HT/PER
                 (UTC) (F)     (DEG/KT/KT) (MB)    (MI)  (FT/S)
SHEBOYGAN LKSHOR 1900   64     130/  9/  9 1015.4F
KEWAUNEE LKSHORE 1900   63      60/  3/  6 1015.1S
NORTHPORT PIER   1900   63     140/  5/  6 1015.6S
N MID LAKE BUOY  1850   58 45  130/  2/  2 1015.7R         0
S GREEN BAY BUOY 1900   69 70   40/  8/ 12 1016.4
SISTER BAY LKSHO 1914          120/  4/  9   N/A
CHAMBERS ISLAND  1900   70      10/  5/  6 1015.6S
MENOMINEE LKSHOR 1900   69      70/  4/  4 1016.0F
$$



USA.gov is the U.S. government's official web portal to all federal, state and local government web resources and services.